Погода в Октябрьском

Россия / Республика Башкортостан     55°36′48″N   57°29′14″E
темп.,
°C
ветер,
м/с
пор.,
м/с
влажн.,
%
обл.,
%
осадки,
мм/ч
давл.,
гПа
погр.,
м
4 августа, ср
ср423:00+20в22565 0.0 101216
02:00+19юв11645 0.0 101311
05:00+18юв116315 0.0 101311
08:00+22ююв11594 0.0 101280
11:00+27зюз344583 0.0 1013488
14:00+33з362534 0.0 10112657
17:00+32з12305 0.0 10111579
20:00+19с2387100 0.7 101258
5 августа, чт
чт523:00+18юв2273100 0.7 101115
02:00+17юв2271100 0.0 101017
05:00+17ссв227071 0.0 101121
08:00+21ю126497 0.0 1010102
11:00+26зюз354488 0.0 1010569
14:00+27зюз354098 0.0 10101189
17:00+28зюз4741100 0.0 10091986
20:00+18з119495 1.9 101024
6 августа, пт
пт623:00+16сз119746 2.1 101229
02:00+15сз1198100 0.1 101221
05:00+14ссз11982 0.1 101219
08:00+16ссз26930 0.0 1012297
11:00+20с346441 0.0 10131126
14:00+21с466121 0.8 10141332
17:00+23с454284 0.8 10132086
20:00+19ссз38560 0.0 1014412
7 августа, сб
сб723:00+12ссз22736 0.0 101616
02:00+10ссз1178100 0.0 101710
05:00+9сз118586 0.0 101710
08:00+14ссз136699 0.0 1018204
11:00+19ссз234525 0.0 10181127
14:00+21ссз343611 0.0 10171657
17:00+22сз453764 0.0 10171811
20:00+17ссз236194 0.0 101862
8 августа, вс
вс823:00+13сз117544 0.0 101910
02:00+12с118022 0.0 102012
05:00+12ссв0180100 0.0 102012
08:00+15сз126633 0.0 1021181
11:00+19сз345057 0.0 1020962
14:00+20зсз35485 0.0 10191140
17:00+21ссз464894 0.0 10191115
20:00+16сз2563100 0.0 1019176